Location: Monrovia
(34.7865°N, 86.7139°W)
Time: 22:02:02
(UTC+00:00)

NOSS 3-4 (A) - Pass Details

Date: 14 July 2020
Orbit: 892 x 1320 km, 63.4° (Epoch: 12 July)

Event Time Altitude Azimuth Distance (km) Brightness Sun altitude
Rises 03:03:03 0° 331° (NNW) 3,890 8.1 -20.7°
Reaches altitude 10° 03:05:38 10° 334° (NNW) 2,991 7.1 -21.0°
Maximum altitude 03:12:50 70° 58° (ENE) 1,269 4.0 -22.0°
Enters shadow 03:16:05 38° 130° (SE) 1,795 4.3 -22.4°
